Wetterdaten: Dienstag, 12.01.2016
Datum Zeit Temp. A. Feuchte A. Luftdruck Regen Wind Richtung Richtung Sonnenschein ET UV Solar Taupunkt Windchill Windben Empfang
12.01.2016 00:00 6,3 C 83 % 994,7 hPa 0,2 l/m 28,5 km/h (4 Bft) W 259 0 min 0,000 mm 0,0 UV-I 0 W/m 3,6 C -4,2 C 49,9 km/h (6 Bft) 97,44 %
12.01.2016 00:05 6,2 C 86 % 994,6 hPa 0,0 l/m 21,1 km/h (4 Bft) W-SW 238 0 min 0,000 mm 0,0 UV-I 0 W/m 4,0 C -2,0 C 33,8 km/h (5 Bft) 100,00 %
12.01.2016 00:10 5,9 C 86 % 994,6 hPa 0,0 l/m 22,2 km/h (4 Bft) W 264 0 min 0,000 mm 0,0 UV-I 0 W/m 3,7 C -2,8 C 35,4 km/h (5 Bft) 99,17 %
12.01.2016 00:15 5,8 C 87 % 994,7 hPa 0,0 l/m 18,5 km/h (3 Bft) W-SW 249 0 min 0,000 mm 0,0 UV-I 0 W/m 3,8 C -1,5 C 27,4 km/h (4 Bft) 100,00 %
12.01.2016 00:20 5,7 C 88 % 994,8 hPa 0,0 l/m 16,7 km/h (3 Bft) W-SW 249 0 min 0,000 mm 0,0 UV-I 0 W/m 3,9 C -0,9 C 25,7 km/h (4 Bft) 98,26 %
12.01.2016 00:25 5,6 C 88 % 994,8 hPa 0,0 l/m 16,0 km/h (3 Bft) W-SW 248 0 min 0,000 mm 0,0 UV-I 0 W/m 3,8 C -0,7 C 22,5 km/h (4 Bft) 100,00 %
12.01.2016 00:30 5,5 C 88 % 994,7 hPa 0,0 l/m 13,2 km/h (3 Bft) W-SW 250 0 min 0,000 mm 0,0 UV-I 0 W/m 3,7 C 0,6 C 19,3 km/h (3 Bft) 100,00 %
12.01.2016 00:35 5,4 C 89 % 994,7 hPa 0,0 l/m 13,9 km/h (3 Bft) W-SW 254 0 min 0,000 mm 0,0 UV-I 0 W/m 3,7 C 0,1 C 20,9 km/h (4 Bft) 99,17 %
12.01.2016 00:40 5,4 C 89 % 994,8 hPa 0,0 l/m 11,4 km/h (2 Bft) SW 230 0 min 0,000 mm 0,0 UV-I 0 W/m 3,7 C 1,6 C 20,9 km/h (4 Bft) 98,37 %
12.01.2016 00:45 5,3 C 89 % 994,8 hPa 0,0 l/m 11,7 km/h (2 Bft) SW 236 0 min 0,000 mm 0,0 UV-I 0 W/m 3,6 C 1,3 C 20,9 km/h (4 Bft) 98,17 %
12.01.2016 00:50 5,3 C 88 % 994,9 hPa 0,0 l/m 11,9 km/h (2 Bft) W-SW 247 0 min 0,000 mm 0,0 UV-I 0 W/m 3,5 C 1,2 C 19,3 km/h (3 Bft) 94,92 %
12.01.2016 00:55 5,3 C 87 % 995,0 hPa 0,0 l/m 14,8 km/h (3 Bft) SW 227 0 min 0,000 mm 0,0 UV-I 0 W/m 3,3 C -0,5 C 25,7 km/h (4 Bft) 96,49 %
12.01.2016 01:00 5,4 C 87 % 995,0 hPa 0,0 l/m 17,2 km/h (3 Bft) SW 236 0 min 0,025 mm 0,0 UV-I 0 W/m 3,4 C -1,5 C 24,1 km/h (4 Bft) 97,58 %
12.01.2016 01:05 5,7 C 84 % 995,1 hPa 0,0 l/m 20,8 km/h (4 Bft) SW 225 0 min 0,000 mm 0,0 UV-I 0 W/m 3,2 C -2,6 C 35,4 km/h (5 Bft) 97,37 %
12.01.2016 01:10 5,8 C 83 % 995,2 hPa 0,0 l/m 18,7 km/h (3 Bft) W-SW 246 0 min 0,000 mm 0,0 UV-I 0 W/m 3,1 C -1,6 C 30,6 km/h (5 Bft) 97,58 %
12.01.2016 01:15 6,0 C 81 % 995,2 hPa 0,0 l/m 21,7 km/h (4 Bft) W-SW 251 0 min 0,000 mm 0,0 UV-I 0 W/m 3,0 C -2,5 C 30,6 km/h (5 Bft) 98,29 %
12.01.2016 01:20 6,1 C 80 % 995,3 hPa 0,0 l/m 20,0 km/h (4 Bft) W-SW 252 0 min 0,000 mm 0,0 UV-I 0 W/m 2,9 C -1,8 C 33,8 km/h (5 Bft) 98,06 %
12.01.2016 01:25 6,1 C 80 % 995,3 hPa 0,0 l/m 17,3 km/h (3 Bft) SW 236 0 min 0,000 mm 0,0 UV-I 0 W/m 2,9 C -0,7 C 29,0 km/h (5 Bft) 99,22 %
12.01.2016 01:30 5,9 C 80 % 995,4 hPa 0,0 l/m 17,7 km/h (3 Bft) W-SW 254 0 min 0,000 mm 0,0 UV-I 0 W/m 2,7 C -1,1 C 29,0 km/h (5 Bft) 96,67 %
12.01.2016 01:35 5,9 C 80 % 995,4 hPa 0,0 l/m 16,0 km/h (3 Bft) SW 226 0 min 0,000 mm 0,0 UV-I 0 W/m 2,7 C -0,3 C 25,7 km/h (4 Bft) 98,21 %
12.01.2016 01:40 5,7 C 81 % 995,4 hPa 0,0 l/m 15,2 km/h (3 Bft) SW 232 0 min 0,000 mm 0,0 UV-I 0 W/m 2,7 C -0,2 C 25,7 km/h (4 Bft) 99,09 %
12.01.2016 01:45 5,5 C 82 % 995,5 hPa 0,0 l/m 13,1 km/h (3 Bft) W-SW 242 0 min 0,000 mm 0,0 UV-I 0 W/m 2,7 C 0,7 C 19,3 km/h (3 Bft) 100,00 %
12.01.2016 01:50 5,4 C 83 % 995,5 hPa 0,0 l/m 11,6 km/h (2 Bft) SW 227 0 min 0,000 mm 0,0 UV-I 0 W/m 2,7 C 1,5 C 17,7 km/h (3 Bft) 99,11 %
12.01.2016 01:55 5,2 C 84 % 995,5 hPa 0,0 l/m 10,1 km/h (2 Bft) W-SW 238 0 min 0,000 mm 0,0 UV-I 0 W/m 2,7 C 2,2 C 17,7 km/h (3 Bft) 100,00 %
12.01.2016 02:00 5,1 C 83 % 995,6 hPa 0,0 l/m 10,3 km/h (2 Bft) SW 230 0 min 0,026 mm 0,0 UV-I 0 W/m 2,5 C 2,0 C 16,1 km/h (3 Bft) 100,00 %
12.01.2016 02:05 5,0 C 83 % 995,5 hPa 0,0 l/m 11,3 km/h (2 Bft) SW 234 0 min 0,000 mm 0,0 UV-I 0 W/m 2,4 C 1,2 C 19,3 km/h (3 Bft) 100,00 %
12.01.2016 02:10 5,0 C 83 % 995,6 hPa 0,0 l/m 12,2 km/h (2 Bft) W-SW 239 0 min 0,000 mm 0,0 UV-I 0 W/m 2,4 C 0,6 C 20,9 km/h (4 Bft) 100,00 %
12.01.2016 02:15 4,9 C 83 % 995,7 hPa 0,0 l/m 15,0 km/h (3 Bft) SW 219 0 min 0,000 mm 0,0 UV-I 0 W/m 2,3 C -1,0 C 30,6 km/h (5 Bft) 99,08 %
12.01.2016 02:20 4,9 C 83 % 995,8 hPa 0,0 l/m 15,7 km/h (3 Bft) SW 229 0 min 0,000 mm 0,0 UV-I 0 W/m 2,3 C -1,4 C 22,5 km/h (4 Bft) 99,15 %
12.01.2016 02:25 4,9 C 82 % 995,8 hPa 0,0 l/m 12,6 km/h (3 Bft) SW 234 0 min 0,000 mm 0,0 UV-I 0 W/m 2,1 C 0,3 C 19,3 km/h (3 Bft) 100,00 %
12.01.2016 02:30 4,8 C 82 % 995,8 hPa 0,0 l/m 14,0 km/h (3 Bft) W-SW 239 0 min 0,000 mm 0,0 UV-I 0 W/m 2,0 C -0,6 C 20,9 km/h (4 Bft) 100,00 %
12.01.2016 02:35 4,8 C 82 % 995,8 hPa 0,0 l/m 12,3 km/h (3 Bft) W-SW 252 0 min 0,000 mm 0,0 UV-I 0 W/m 2,0 C 0,3 C 22,5 km/h (4 Bft) 97,58 %
12.01.2016 02:40 4,8 C 82 % 995,9 hPa 0,0 l/m 13,6 km/h (3 Bft) W 268 0 min 0,000 mm 0,0 UV-I 0 W/m 2,0 C -0,4 C 25,7 km/h (4 Bft) 100,00 %
12.01.2016 02:45 4,8 C 82 % 995,9 hPa 0,0 l/m 11,9 km/h (2 Bft) SW 232 0 min 0,000 mm 0,0 UV-I 0 W/m 2,0 C 0,6 C 19,3 km/h (3 Bft) 100,00 %
12.01.2016 02:50 4,6 C 82 % 996,0 hPa 0,0 l/m 11,7 km/h (2 Bft) W-SW 239 0 min 0,000 mm 0,0 UV-I 0 W/m 1,8 C 0,5 C 17,7 km/h (3 Bft) 100,00 %
12.01.2016 02:55 4,5 C 83 % 996,1 hPa 0,0 l/m 11,3 km/h (2 Bft) W-SW 254 0 min 0,000 mm 0,0 UV-I 0 W/m 1,9 C 0,6 C 19,3 km/h (3 Bft) 95,83 %
12.01.2016 03:00 4,5 C 82 % 996,0 hPa 0,0 l/m 13,9 km/h (3 Bft) SW 221 0 min 0,025 mm 0,0 UV-I 0 W/m 1,7 C -0,9 C 24,1 km/h (4 Bft) 97,32 %
12.01.2016 03:05 4,3 C 83 % 995,9 hPa 0,0 l/m 10,0 km/h (2 Bft) SW 215 0 min 0,000 mm 0,0 UV-I 0 W/m 1,7 C 1,3 C 17,7 km/h (3 Bft) 96,67 %
12.01.2016 03:10 4,2 C 83 % 995,9 hPa 0,0 l/m 12,0 km/h (2 Bft) SW 227 0 min 0,000 mm 0,0 UV-I 0 W/m 1,6 C -0,2 C 17,7 km/h (3 Bft) 98,35 %
12.01.2016 03:15 4,2 C 83 % 995,8 hPa 0,0 l/m 11,1 km/h (2 Bft) S-SW 200 0 min 0,000 mm 0,0 UV-I 0 W/m 1,6 C 0,4 C 16,1 km/h (3 Bft) 97,52 %
12.01.2016 03:20 4,1 C 84 % 995,8 hPa 0,0 l/m 11,5 km/h (2 Bft) SW 232 0 min 0,000 mm 0,0 UV-I 0 W/m 1,6 C 0,0 C 17,7 km/h (3 Bft) 96,58 %
12.01.2016 03:25 3,9 C 85 % 995,9 hPa 0,0 l/m 11,9 km/h (2 Bft) S 180 0 min 0,000 mm 0,0 UV-I 0 W/m 1,6 C -0,4 C 19,3 km/h (3 Bft) 97,25 %
12.01.2016 03:30 3,9 C 85 % 995,9 hPa 0,0 l/m 11,2 km/h (2 Bft) W 275 0 min 0,000 mm 0,0 UV-I 0 W/m 1,6 C 0,0 C 20,9 km/h (4 Bft) 96,52 %
12.01.2016 03:35 3,9 C 85 % 996,0 hPa 0,0 l/m 10,9 km/h (2 Bft) S-SW 209 0 min 0,000 mm 0,0 UV-I 0 W/m 1,6 C 0,2 C 17,7 km/h (3 Bft) 98,10 %
12.01.2016 03:40 3,9 C 85 % 995,9 hPa 0,0 l/m 10,7 km/h (2 Bft) S-SW 208 0 min 0,000 mm 0,0 UV-I 0 W/m 1,6 C 0,4 C 19,3 km/h (3 Bft) 98,46 %
12.01.2016 03:45 3,9 C 86 % 995,8 hPa 0,0 l/m 11,8 km/h (2 Bft) SW 214 0 min 0,000 mm 0,0 UV-I 0 W/m 1,8 C -0,4 C 19,3 km/h (3 Bft) 98,33 %
12.01.2016 03:50 4,0 C 85 % 996,0 hPa 0,0 l/m 15,2 km/h (3 Bft) S-SW 210 0 min 0,000 mm 0,0 UV-I 0 W/m 1,7 C -2,2 C 22,5 km/h (4 Bft) 100,00 %
12.01.2016 03:55 4,2 C 85 % 995,8 hPa 0,0 l/m 20,0 km/h (4 Bft) SW 221 0 min 0,000 mm 0,0 UV-I 0 W/m 1,9 C -4,2 C 37,0 km/h (5 Bft) 100,00 %
12.01.2016 04:00 4,6 C 84 % 995,8 hPa 0,2 l/m 20,3 km/h (4 Bft) W-SW 238 0 min 0,026 mm 0,0 UV-I 0 W/m 2,1 C -3,8 C 32,2 km/h (5 Bft) 99,07 %
12.01.2016 04:05 4,8 C 83 % 995,8 hPa 0,0 l/m 18,2 km/h (3 Bft) W-SW 250 0 min 0,000 mm 0,0 UV-I 0 W/m 2,2 C -2,7 C 30,6 km/h (5 Bft) 100,00 %
12.01.2016 04:10 5,0 C 82 % 995,9 hPa 0,0 l/m 16,3 km/h (3 Bft) W-SW 250 0 min 0,000 mm 0,0 UV-I 0 W/m 2,2 C -1,6 C 32,2 km/h (5 Bft) 99,06 %
12.01.2016 04:15 5,1 C 82 % 996,0 hPa 0,0 l/m 16,4 km/h (3 Bft) W 264 0 min 0,000 mm 0,0 UV-I 0 W/m 2,3 C -1,5 C 24,1 km/h (4 Bft) 100,00 %
12.01.2016 04:20 5,1 C 83 % 996,0 hPa 0,0 l/m 16,2 km/h (3 Bft) W 259 0 min 0,000 mm 0,0 UV-I 0 W/m 2,5 C -1,4 C 25,7 km/h (4 Bft) 100,00 %
12.01.2016 04:25 5,0 C 83 % 996,0 hPa 0,0 l/m 18,6 km/h (3 Bft) SW 233 0 min 0,000 mm 0,0 UV-I 0 W/m 2,4 C -2,6 C 33,8 km/h (5 Bft) 98,20 %
12.01.2016 04:30 5,1 C 83 % 996,1 hPa 0,0 l/m 21,0 km/h (4 Bft) W-SW 245 0 min 0,000 mm 0,0 UV-I 0 W/m 2,5 C -3,4 C 32,2 km/h (5 Bft) 100,00 %
12.01.2016 04:35 5,1 C 83 % 996,0 hPa 0,0 l/m 16,8 km/h (3 Bft) SW 236 0 min 0,000 mm 0,0 UV-I 0 W/m 2,5 C -1,7 C 27,4 km/h (4 Bft) 99,17 %
12.01.2016 04:40 5,0 C 84 % 995,8 hPa 0,2 l/m 18,0 km/h (3 Bft) W-SW 252 0 min 0,000 mm 0,0 UV-I 0 W/m 2,5 C -2,3 C 29,0 km/h (5 Bft) 100,00 %
12.01.2016 04:45 4,8 C 84 % 996,0 hPa 0,0 l/m 13,8 km/h (3 Bft) W-SW 242 0 min 0,000 mm 0,0 UV-I 0 W/m 2,3 C -0,5 C 20,9 km/h (4 Bft) 100,00 %
12.01.2016 04:50 4,7 C 85 % 996,0 hPa 0,0 l/m 12,6 km/h (3 Bft) W-SW 248 0 min 0,000 mm 0,0 UV-I 0 W/m 2,4 C 0,0 C 19,3 km/h (3 Bft) 99,17 %
12.01.2016 04:55 4,6 C 85 % 996,0 hPa 0,0 l/m 14,5 km/h (3 Bft) SW 225 0 min 0,000 mm 0,0 UV-I 0 W/m 2,3 C -1,1 C 22,5 km/h (4 Bft) 99,15 %
12.01.2016 05:00 4,6 C 86 % 995,9 hPa 0,0 l/m 14,1 km/h (3 Bft) W-SW 239 0 min 0,025 mm 0,0 UV-I 0 W/m 2,5 C -0,9 C 22,5 km/h (4 Bft) 99,06 %
12.01.2016 05:05 4,6 C 86 % 995,9 hPa 0,0 l/m 12,4 km/h (3 Bft) SW 231 0 min 0,000 mm 0,0 UV-I 0 W/m 2,5 C 0,1 C 19,3 km/h (3 Bft) 99,08 %
12.01.2016 05:10 4,5 C 86 % 995,9 hPa 0,0 l/m 12,0 km/h (2 Bft) SW 225 0 min 0,000 mm 0,0 UV-I 0 W/m 2,4 C 0,2 C 22,5 km/h (4 Bft) 98,52 %
12.01.2016 05:15 4,4 C 86 % 995,6 hPa 0,0 l/m 12,0 km/h (2 Bft) S 171 0 min 0,000 mm 0,0 UV-I 0 W/m 2,3 C 0,1 C 20,9 km/h (4 Bft) 95,87 %
12.01.2016 05:20 4,6 C 85 % 995,7 hPa 0,0 l/m 12,5 km/h (3 Bft) S-SW 192 0 min 0,000 mm 0,0 UV-I 0 W/m 2,3 C -0,0 C 20,9 km/h (4 Bft) 94,74 %
12.01.2016 05:25 4,6 C 84 % 995,6 hPa 0,0 l/m 12,9 km/h (3 Bft) S-SW 193 0 min 0,000 mm 0,0 UV-I 0 W/m 2,1 C -0,2 C 22,5 km/h (4 Bft) 96,61 %
12.01.2016 05:30 4,8 C 83 % 995,5 hPa 0,0 l/m 17,6 km/h (3 Bft) SW 228 0 min 0,000 mm 0,0 UV-I 0 W/m 2,2 C -2,4 C 32,2 km/h (5 Bft) 95,65 %
12.01.2016 05:35 4,8 C 83 % 995,5 hPa 0,0 l/m 14,8 km/h (3 Bft) W-SW 250 0 min 0,000 mm 0,0 UV-I 0 W/m 2,2 C -1,1 C 25,7 km/h (4 Bft) 97,37 %
12.01.2016 05:40 4,8 C 83 % 995,6 hPa 0,0 l/m 12,8 km/h (3 Bft) SW 229 0 min 0,000 mm 0,0 UV-I 0 W/m 2,2 C 0,0 C 20,9 km/h (4 Bft) 96,33 %
12.01.2016 05:45 4,8 C 82 % 995,6 hPa 0,0 l/m 14,5 km/h (3 Bft) SW 235 0 min 0,000 mm 0,0 UV-I 0 W/m 2,0 C -0,9 C 25,7 km/h (4 Bft) 99,19 %
12.01.2016 05:50 4,8 C 83 % 995,6 hPa 0,0 l/m 13,0 km/h (3 Bft) S-SW 212 0 min 0,000 mm 0,0 UV-I 0 W/m 2,2 C -0,1 C 20,9 km/h (4 Bft) 99,06 %
12.01.2016 05:55 4,7 C 83 % 995,6 hPa 0,0 l/m 12,8 km/h (3 Bft) SW 225 0 min 0,000 mm 0,0 UV-I 0 W/m 2,1 C -0,1 C 20,9 km/h (4 Bft) 100,00 %
12.01.2016 06:00 4,7 C 83 % 995,6 hPa 0,0 l/m 13,1 km/h (3 Bft) W-SW 240 0 min 0,025 mm 0,0 UV-I 0 W/m 2,1 C -0,2 C 19,3 km/h (3 Bft) 98,29 %
12.01.2016 06:05 4,6 C 84 % 995,7 hPa 0,0 l/m 13,5 km/h (3 Bft) SW 223 0 min 0,000 mm 0,0 UV-I 0 W/m 2,1 C -0,6 C 19,3 km/h (3 Bft) 98,31 %
12.01.2016 06:10 4,6 C 84 % 995,8 hPa 0,0 l/m 12,6 km/h (3 Bft) W-SW 238 0 min 0,000 mm 0,0 UV-I 0 W/m 2,1 C -0,1 C 20,9 km/h (4 Bft) 100,00 %
12.01.2016 06:15 4,6 C 84 % 995,8 hPa 0,0 l/m 11,2 km/h (2 Bft) W-SW 250 0 min 0,000 mm 0,0 UV-I 0 W/m 2,1 C 0,8 C 17,7 km/h (3 Bft) 99,19 %
12.01.2016 06:20 4,6 C 84 % 995,7 hPa 0,0 l/m 11,2 km/h (2 Bft) S-SW 213 0 min 0,000 mm 0,0 UV-I 0 W/m 2,1 C 0,8 C 17,7 km/h (3 Bft) 99,15 %
12.01.2016 06:25 4,5 C 84 % 995,8 hPa 0,0 l/m 9,6 km/h (2 Bft) SW 230 0 min 0,000 mm 0,0 UV-I 0 W/m 2,0 C 1,8 C 16,1 km/h (3 Bft) 98,20 %
12.01.2016 06:30 4,4 C 85 % 995,8 hPa 0,0 l/m 10,8 km/h (2 Bft) S-SW 196 0 min 0,000 mm 0,0 UV-I 0 W/m 2,1 C 0,8 C 25,7 km/h (4 Bft) 100,00 %
12.01.2016 06:35 4,6 C 83 % 995,9 hPa 0,0 l/m 12,6 km/h (3 Bft) S-SO 167 0 min 0,000 mm 0,0 UV-I 0 W/m 2,0 C -0,1 C 22,5 km/h (4 Bft) 100,00 %
12.01.2016 06:40 4,6 C 83 % 996,0 hPa 0,0 l/m 12,2 km/h (2 Bft) SW 232 0 min 0,000 mm 0,0 UV-I 0 W/m 2,0 C 0,2 C 17,7 km/h (3 Bft) 100,00 %
12.01.2016 06:45 4,6 C 84 % 995,9 hPa 0,0 l/m 11,2 km/h (2 Bft) W-SW 245 0 min 0,000 mm 0,0 UV-I 0 W/m 2,1 C 0,8 C 16,1 km/h (3 Bft) 99,13 %
12.01.2016 06:50 4,4 C 84 % 995,9 hPa 0,0 l/m 12,5 km/h (3 Bft) W-SW 246 0 min 0,000 mm 0,0 UV-I 0 W/m 1,9 C -0,2 C 19,3 km/h (3 Bft) 100,00 %
12.01.2016 06:55 4,4 C 84 % 995,9 hPa 0,0 l/m 11,2 km/h (2 Bft) SW 222 0 min 0,000 mm 0,0 UV-I 0 W/m 1,9 C 0,6 C 17,7 km/h (3 Bft) 99,19 %
12.01.2016 07:00 4,5 C 83 % 995,9 hPa 0,0 l/m 14,2 km/h (3 Bft) SW 227 0 min 0,026 mm 0,0 UV-I 0 W/m 1,9 C -1,1 C 19,3 km/h (3 Bft) 100,00 %
12.01.2016 07:05 4,7 C 82 % 996,0 hPa 0,0 l/m 13,0 km/h (3 Bft) W-SW 238 0 min 0,000 mm 0,0 UV-I 0 W/m 1,9 C -0,2 C 22,5 km/h (4 Bft) 99,13 %
12.01.2016 07:10 4,8 C 81 % 995,9 hPa 0,0 l/m 14,1 km/h (3 Bft) W-SW 248 0 min 0,000 mm 0,0 UV-I 0 W/m 1,8 C -0,7 C 20,9 km/h (4 Bft) 100,00 %
12.01.2016 07:15 5,0 C 80 % 996,0 hPa 0,0 l/m 15,1 km/h (3 Bft) SW 236 0 min 0,000 mm 0,0 UV-I 0 W/m 1,8 C -1,0 C 20,9 km/h (4 Bft) 99,08 %
12.01.2016 07:20 5,2 C 79 % 996,0 hPa 0,0 l/m 14,1 km/h (3 Bft) W-SW 238 0 min 0,000 mm 0,0 UV-I 0 W/m 1,9 C -0,2 C 27,4 km/h (4 Bft) 97,37 %
12.01.2016 07:25 5,3 C 78 % 996,0 hPa 0,0 l/m 16,5 km/h (3 Bft) SW 223 0 min 0,000 mm 0,0 UV-I 0 W/m 1,8 C -1,3 C 27,4 km/h (4 Bft) 97,46 %
12.01.2016 07:30 5,4 C 77 % 996,1 hPa 0,0 l/m 16,9 km/h (3 Bft) S 191 0 min 0,000 mm 0,0 UV-I 0 W/m 1,7 C -1,3 C 27,4 km/h (4 Bft) 97,46 %
12.01.2016 07:35 5,4 C 77 % 996,1 hPa 0,0 l/m 19,7 km/h (3 Bft) SW 236 0 min 0,000 mm 0,0 UV-I 0 W/m 1,7 C -2,5 C 38,6 km/h (5 Bft) 96,36 %
12.01.2016 07:45 5,5 C 77 % 996,3 hPa 0,0 l/m 16,7 km/h (3 Bft) W-SW 254 0 min 0,000 mm 0,0 UV-I 0 W/m 1,8 C -1,1 C 25,7 km/h (4 Bft) 96,68 %
12.01.2016 07:50 5,4 C 77 % 996,3 hPa 0,0 l/m 16,7 km/h (3 Bft) SW 215 0 min 0,000 mm 0,0 UV-I 0 W/m 1,7 C -1,3 C 25,7 km/h (4 Bft) 98,21 %
12.01.2016 07:55 5,4 C 77 % 996,3 hPa 0,0 l/m 17,5 km/h (3 Bft) SW 223 0 min 0,000 mm 0,0 UV-I 1 W/m 1,7 C -1,6 C 27,4 km/h (4 Bft) 95,16 %
12.01.2016 08:00 5,4 C 77 % 996,3 hPa 0,0 l/m 17,8 km/h (3 Bft) W-SW 247 0 min 0,000 mm 0,0 UV-I 9 W/m 1,7 C -1,7 C 27,4 km/h (4 Bft) 99,05 %
12.01.2016 08:05 5,5 C 77 % 996,4 hPa 0,0 l/m 17,8 km/h (3 Bft) W-SW 240 5 min 0,025 mm 0,0 UV-I 12 W/m 1,8 C -1,6 C 29,0 km/h (5 Bft) 98,43 %
12.01.2016 08:10 5,6 C 76 % 996,5 hPa 0,0 l/m 15,1 km/h (3 Bft) S-SW 207 0 min 0,000 mm 0,0 UV-I 12 W/m 1,7 C -0,2 C 24,1 km/h (4 Bft) 100,00 %
12.01.2016 08:15 5,7 C 75 % 996,6 hPa 0,0 l/m 17,9 km/h (3 Bft) SW 234 0 min 0,000 mm 0,0 UV-I 14 W/m 1,6 C -1,4 C 29,0 km/h (5 Bft) 100,00 %
12.01.2016 08:20 5,7 C 75 % 996,5 hPa 0,0 l/m 16,6 km/h (3 Bft) W-SW 239 0 min 0,000 mm 0,0 UV-I 16 W/m 1,6 C -0,8 C 27,4 km/h (4 Bft) 100,00 %
12.01.2016 08:25 5,7 C 75 % 996,6 hPa 0,0 l/m 15,3 km/h (3 Bft) SW 227 0 min 0,000 mm 0,0 UV-I 20 W/m 1,6 C -0,2 C 27,4 km/h (4 Bft) 99,10 %
12.01.2016 08:30 5,7 C 75 % 996,5 hPa 0,0 l/m 18,0 km/h (3 Bft) S-SW 213 0 min 0,000 mm 0,0 UV-I 28 W/m 1,6 C -1,5 C 32,2 km/h (5 Bft) 99,13 %
12.01.2016 08:35 5,7 C 76 % 996,6 hPa 0,0 l/m 18,8 km/h (3 Bft) W-SW 240 0 min 0,000 mm 0,0 UV-I 34 W/m 1,8 C -1,8 C 30,6 km/h (5 Bft) 100,00 %
12.01.2016 08:40 5,8 C 75 % 996,7 hPa 0,0 l/m 19,2 km/h (3 Bft) S-SW 210 0 min 0,000 mm 0,0 UV-I 40 W/m 1,7 C -1,8 C 32,2 km/h (5 Bft) 100,00 %
12.01.2016 08:45 5,8 C 75 % 996,8 hPa 0,0 l/m 17,6 km/h (3 Bft) SW 227 0 min 0,000 mm 0,0 UV-I 43 W/m 1,7 C -1,2 C 29,0 km/h (5 Bft) 100,00 %
12.01.2016 08:50 5,8 C 75 % 996,9 hPa 0,0 l/m 17,8 km/h (3 Bft) W-SW 242 0 min 0,000 mm 0,0 UV-I 49 W/m 1,7 C -1,2 C 30,6 km/h (5 Bft) 100,00 %
12.01.2016 08:55 5,9 C 74 % 997,0 hPa 0,0 l/m 18,5 km/h (3 Bft) S-SW 205 0 min 0,000 mm 0,0 UV-I 49 W/m 1,6 C -1,4 C 27,4 km/h (4 Bft) 99,18 %
12.01.2016 09:00 5,8 C 75 % 997,1 hPa 0,0 l/m 17,0 km/h (3 Bft) W 267 0 min 0,051 mm 0,0 UV-I 49 W/m 1,7 C -0,9 C 24,1 km/h (4 Bft) 99,15 %
12.01.2016 09:05 5,8 C 76 % 997,2 hPa 0,0 l/m 17,5 km/h (3 Bft) SW 214 0 min 0,000 mm 0,0 UV-I 49 W/m 1,9 C -1,1 C 27,4 km/h (4 Bft) 100,00 %
12.01.2016 09:10 5,8 C 75 % 997,1 hPa 0,0 l/m 18,5 km/h (3 Bft) S-SW 206 0 min 0,000 mm 0,0 UV-I 45 W/m 1,7 C -1,5 C 32,2 km/h (5 Bft) 100,00 %
12.01.2016 09:15 5,8 C 75 % 997,1 hPa 0,0 l/m 22,0 km/h (4 Bft) W-SW 244 0 min 0,000 mm 0,0 UV-I 43 W/m 1,7 C -2,9 C 37,0 km/h (5 Bft) 99,15 %
12.01.2016 09:20 5,8 C 74 % 997,2 hPa 0,0 l/m 19,7 km/h (3 Bft) SW 234 0 min 0,000 mm 0,0 UV-I 48 W/m 1,5 C -2,0 C 35,4 km/h (5 Bft) 100,00 %
12.01.2016 09:25 5,8 C 75 % 997,3 hPa 0,0 l/m 19,2 km/h (3 Bft) W 261 0 min 0,000 mm 0,0 UV-I 51 W/m 1,7 C -1,8 C 30,6 km/h (5 Bft) 100,00 %
12.01.2016 09:30 5,8 C 76 % 997,3 hPa 0,0 l/m 21,1 km/h (4 Bft) W-SW 238 0 min 0,000 mm 0,0 UV-I 80 W/m 1,9 C -2,6 C 35,4 km/h (5 Bft) 97,32 %
12.01.2016 09:35 5,9 C 76 % 997,4 hPa 0,0 l/m 21,0 km/h (4 Bft) SW 234 0 min 0,000 mm 0,0 UV-I 79 W/m 2,0 C -2,4 C 32,2 km/h (5 Bft) 96,75 %
12.01.2016 09:40 5,8 C 77 % 997,4 hPa 0,0 l/m 20,4 km/h (4 Bft) W-SW 244 0 min 0,000 mm 0,0 UV-I 86 W/m 2,1 C -2,3 C 29,0 km/h (5 Bft) 95,54 %
12.01.2016 09:45 5,9 C 77 % 997,4 hPa 0,0 l/m 21,1 km/h (4 Bft) SW 234 0 min 0,000 mm 0,0 UV-I 123 W/m 2,2 C -2,4 C 35,4 km/h (5 Bft) 95,65 %
12.01.2016 09:50 6,1 C 76 % 997,5 hPa 0,0 l/m 21,6 km/h (4 Bft) W-SW 242 0 min 0,000 mm 0,0 UV-I 112 W/m 2,2 C -2,3 C 35,4 km/h (5 Bft) 97,50 %
12.01.2016 09:55 6,2 C 76 % 997,5 hPa 0,0 l/m 23,1 km/h (4 Bft) W-SW 247 0 min 0,000 mm 0,0 UV-I 88 W/m 2,3 C -2,7 C 33,8 km/h (5 Bft) 97,46 %
12.01.2016 10:00 6,2 C 76 % 997,5 hPa 0,0 l/m 25,6 km/h (4 Bft) W-SW 251 0 min 0,076 mm 0,0 UV-I 68 W/m 2,3 C -3,5 C 43,5 km/h (6 Bft) 95,83 %
12.01.2016 10:05 6,2 C 76 % 997,5 hPa 0,0 l/m 22,1 km/h (4 Bft) W 265 0 min 0,000 mm 0,0 UV-I 72 W/m 2,3 C -2,4 C 35,4 km/h (5 Bft) 99,09 %
12.01.2016 10:10 6,2 C 76 % 997,6 hPa 0,0 l/m 23,0 km/h (4 Bft) W-SW 238 0 min 0,000 mm 0,0 UV-I 74 W/m 2,3 C -2,7 C 33,8 km/h (5 Bft) 98,35 %
12.01.2016 10:15 6,3 C 75 % 997,6 hPa 0,0 l/m 26,4 km/h (4 Bft) W-SW 239 0 min 0,000 mm 0,0 UV-I 98 W/m 2,2 C -3,6 C 46,7 km/h (6 Bft) 100,00 %
12.01.2016 10:20 6,3 C 76 % 997,5 hPa 0,0 l/m 27,9 km/h (4 Bft) S-SW 207 0 min 0,000 mm 0,0 UV-I 141 W/m 2,4 C -4,0 C 43,5 km/h (6 Bft) 100,00 %
12.01.2016 10:25 6,4 C 76 % 997,5 hPa 0,0 l/m 24,3 km/h (4 Bft) W-SW 240 5 min 0,000 mm 0,0 UV-I 162 W/m 2,5 C -2,8 C 41,8 km/h (6 Bft) 100,00 %
12.01.2016 10:30 6,4 C 76 % 997,7 hPa 0,0 l/m 28,0 km/h (4 Bft) S-SW 194 5 min 0,000 mm 0,0 UV-I 162 W/m 2,5 C -3,9 C 46,7 km/h (6 Bft) 99,08 %
12.01.2016 10:35 6,4 C 77 % 997,7 hPa 0,0 l/m 27,4 km/h (4 Bft) W-SW 249 5 min 0,000 mm 0,0 UV-I 190 W/m 2,7 C -3,7 C 43,5 km/h (6 Bft) 98,39 %
12.01.2016 10:40 6,4 C 77 % 997,8 hPa 0,0 l/m 28,1 km/h (4 Bft) SW 227 0 min 0,000 mm 0,0 UV-I 142 W/m 2,7 C -3,9 C 53,1 km/h (7 Bft) 99,15 %
12.01.2016 10:45 6,3 C 77 % 997,8 hPa 0,0 l/m 25,2 km/h (4 Bft) S-SW 194 0 min 0,000 mm 0,0 UV-I 81 W/m 2,6 C -3,2 C 40,2 km/h (6 Bft) 100,00 %
12.01.2016 10:50 6,2 C 78 % 997,8 hPa 0,0 l/m 26,7 km/h (4 Bft) SW 233 0 min 0,000 mm 0,0 UV-I 89 W/m 2,7 C -3,8 C 46,7 km/h (6 Bft) 100,00 %
12.01.2016 10:55 6,1 C 79 % 997,8 hPa 0,0 l/m 22,9 km/h (4 Bft) S-SW 210 0 min 0,000 mm 0,0 UV-I 85 W/m 2,7 C -2,8 C 38,6 km/h (5 Bft) 100,00 %
12.01.2016 11:00 6,1 C 78 % 997,7 hPa 0,0 l/m 26,3 km/h (4 Bft) S-SW 194 0 min 0,000 mm 0,0 UV-I 109 W/m 2,6 C -3,8 C 43,5 km/h (6 Bft) 100,00 %
12.01.2016 11:05 6,0 C 78 % 997,7 hPa 0,0 l/m 27,2 km/h (4 Bft) S-SW 207 0 min 0,102 mm 0,0 UV-I 136 W/m 2,5 C -4,2 C 41,8 km/h (6 Bft) 99,21 %
12.01.2016 11:10 5,9 C 78 % 997,7 hPa 0,0 l/m 25,2 km/h (4 Bft) S-SO 157 0 min 0,000 mm 0,0 UV-I 165 W/m 2,4 C -3,8 C 40,2 km/h (6 Bft) 98,33 %
12.01.2016 11:15 6,0 C 79 % 997,8 hPa 0,0 l/m 24,6 km/h (4 Bft) S 182 0 min 0,000 mm 0,0 UV-I 175 W/m 2,6 C -3,5 C 46,7 km/h (6 Bft) 99,13 %
12.01.2016 11:20 5,9 C 79 % 997,8 hPa 0,0 l/m 22,4 km/h (4 Bft) W-SW 249 0 min 0,000 mm 0,0 UV-I 144 W/m 2,5 C -2,9 C 40,2 km/h (6 Bft) 98,97 %
12.01.2016 11:25 5,8 C 80 % 997,8 hPa 0,0 l/m 20,9 km/h (4 Bft) SW 229 0 min 0,000 mm 0,0 UV-I 115 W/m 2,6 C -2,5 C 38,6 km/h (5 Bft) 100,00 %
12.01.2016 11:30 5,6 C 81 % 998,0 hPa 0,0 l/m 20,2 km/h (4 Bft) SW 233 0 min 0,000 mm 0,0 UV-I 82 W/m 2,6 C -2,5 C 35,4 km/h (5 Bft) 96,43 %
12.01.2016 11:35 5,4 C 81 % 998,0 hPa 0,0 l/m 22,8 km/h (4 Bft) W 263 0 min 0,000 mm 0,0 UV-I 62 W/m 2,4 C -3,7 C 37,0 km/h (5 Bft) 96,58 %
12.01.2016 11:40 5,3 C 81 % 998,0 hPa 0,0 l/m 19,0 km/h (3 Bft) S-SW 204 0 min 0,000 mm 0,0 UV-I 88 W/m 2,3 C -2,4 C 33,8 km/h (5 Bft) 95,54 %
12.01.2016 11:45 5,3 C 81 % 998,1 hPa 0,0 l/m 20,1 km/h (4 Bft) S 174 0 min 0,000 mm 0,0 UV-I 100 W/m 2,3 C -2,8 C 40,2 km/h (6 Bft) 95,97 %
12.01.2016 11:50 5,2 C 83 % 998,2 hPa 0,0 l/m 18,6 km/h (3 Bft) W 261 0 min 0,000 mm 0,0 UV-I 88 W/m 2,6 C -2,3 C 35,4 km/h (5 Bft) 96,67 %
12.01.2016 11:55 5,0 C 83 % 998,2 hPa 0,0 l/m 19,0 km/h (3 Bft) SW 233 0 min 0,000 mm 0,0 UV-I 75 W/m 2,4 C -2,8 C 32,2 km/h (5 Bft) 95,76 %
12.01.2016 12:00 4,9 C 84 % 998,2 hPa 0,0 l/m 20,8 km/h (4 Bft) S-SW 198 0 min 0,076 mm 0,0 UV-I 106 W/m 2,4 C -3,6 C 30,6 km/h (5 Bft) 97,50 %
12.01.2016 12:05 4,8 C 84 % 998,4 hPa 0,0 l/m 18,2 km/h (3 Bft) SW 231 0 min 0,000 mm 0,0 UV-I 124 W/m 2,3 C -2,7 C 30,6 km/h (5 Bft) 98,20 %
12.01.2016 12:10 4,7 C 85 % 998,5 hPa 0,0 l/m 19,1 km/h (3 Bft) SW 235 0 min 0,000 mm 0,0 UV-I 110 W/m 2,4 C -3,2 C 30,6 km/h (5 Bft) 98,39 %
12.01.2016 12:15 4,6 C 85 % 998,6 hPa 0,0 l/m 21,1 km/h (4 Bft) W 273 0 min 0,000 mm 0,0 UV-I 107 W/m 2,3 C -4,1 C 37,0 km/h (5 Bft) 98,10 %
12.01.2016 12:20 4,5 C 85 % 998,8 hPa 0,0 l/m 19,5 km/h (3 Bft) S-SO 152 0 min 0,000 mm 0,0 UV-I 90 W/m 2,2 C -3,6 C 37,0 km/h (5 Bft) 100,00 %
12.01.2016 12:25 4,4 C 85 % 999,0 hPa 0,0 l/m 25,5 km/h (4 Bft) W-SW 253 0 min 0,000 mm 0,0 UV-I 68 W/m 2,1 C -5,9 C 37,0 km/h (5 Bft) 99,17 %
12.01.2016 12:30 4,3 C 86 % 999,1 hPa 0,0 l/m 21,3 km/h (4 Bft) SW 233 0 min 0,000 mm 0,0 UV-I 73 W/m 2,2 C -4,6 C 35,4 km/h (5 Bft) 100,00 %
12.01.2016 12:35 4,3 C 86 % 999,2 hPa 0,0 l/m 22,0 km/h (4 Bft) W-SW 239 0 min 0,000 mm 0,0 UV-I 102 W/m 2,2 C -4,9 C 35,4 km/h (5 Bft) 100,00 %
12.01.2016 12:40 4,3 C 86 % 999,4 hPa 0,0 l/m 23,4 km/h (4 Bft) SW 220 0 min 0,000 mm 0,0 UV-I 132 W/m 2,2 C -5,4 C 35,4 km/h (5 Bft) 99,13 %
12.01.2016 12:45 4,3 C 86 % 999,5 hPa 0,0 l/m 24,6 km/h (4 Bft) W-SW 249 0 min 0,000 mm 0,0 UV-I 115 W/m 2,2 C -5,8 C 41,8 km/h (6 Bft) 98,41 %
12.01.2016 12:50 4,3 C 87 % 999,6 hPa 0,0 l/m 24,8 km/h (4 Bft) W-SW 244 0 min 0,000 mm 0,0 UV-I 95 W/m 2,3 C -5,8 C 43,5 km/h (6 Bft) 100,00 %
12.01.2016 12:55 4,2 C 88 % 999,7 hPa 0,0 l/m 23,4 km/h (4 Bft) S-SO 161 0 min 0,000 mm 0,0 UV-I 87 W/m 2,4 C -5,5 C 46,7 km/h (6 Bft) 100,00 %
12.01.2016 13:00 4,2 C 88 % 999,8 hPa 0,0 l/m 21,7 km/h (4 Bft) S-SW 194 0 min 0,076 mm 0,0 UV-I 71 W/m 2,4 C -4,9 C 35,4 km/h (5 Bft) 99,17 %
12.01.2016 13:05 4,1 C 88 % 999,9 hPa 0,0 l/m 22,7 km/h (4 Bft) W-SW 241 0 min 0,000 mm 0,0 UV-I 55 W/m 2,3 C -5,4 C 40,2 km/h (6 Bft) 99,11 %
12.01.2016 13:10 4,0 C 89 % 1000,1 hPa 0,0 l/m 25,3 km/h (4 Bft) S 186 0 min 0,000 mm 0,0 UV-I 58 W/m 2,4 C -6,4 C 41,8 km/h (6 Bft) 100,00 %
12.01.2016 13:15 3,9 C 89 % 1000,0 hPa 0,0 l/m 24,1 km/h (4 Bft) W-SW 257 0 min 0,000 mm 0,0 UV-I 59 W/m 2,3 C -6,1 C 43,5 km/h (6 Bft) 99,15 %
12.01.2016 13:20 3,9 C 89 % 1000,1 hPa 0,0 l/m 26,1 km/h (4 Bft) SW 218 0 min 0,000 mm 0,0 UV-I 60 W/m 2,3 C -6,8 C 41,8 km/h (6 Bft) 100,00 %
12.01.2016 13:25 3,9 C 89 % 1000,2 hPa 0,0 l/m 25,8 km/h (4 Bft) S-SW 192 0 min 0,000 mm 0,0 UV-I 85 W/m 2,3 C -6,7 C 46,7 km/h (6 Bft) 99,21 %
12.01.2016 13:30 3,8 C 89 % 1000,4 hPa 0,0 l/m 26,2 km/h (4 Bft) W-SW 244 0 min 0,000 mm 0,0 UV-I 85 W/m 2,2 C -7,0 C 38,6 km/h (5 Bft) 98,21 %
12.01.2016 13:35 3,8 C 89 % 1000,5 hPa 0,0 l/m 25,8 km/h (4 Bft) S-SW 207 0 min 0,000 mm 0,0 UV-I 78 W/m 2,2 C -6,8 C 41,8 km/h (6 Bft) 97,44 %
12.01.2016 13:40 3,8 C 89 % 1000,6 hPa 0,0 l/m 24,9 km/h (4 Bft) SW 235 0 min 0,000 mm 0,0 UV-I 102 W/m 2,2 C -6,5 C 40,2 km/h (6 Bft) 96,61 %
12.01.2016 13:45 3,8 C 89 % 1000,6 hPa 0,0 l/m 26,2 km/h (4 Bft) W-SW 250 0 min 0,000 mm 0,0 UV-I 118 W/m 2,2 C -7,0 C 41,8 km/h (6 Bft) 95,83 %
12.01.2016 13:50 3,9 C 88 % 1000,5 hPa 0,0 l/m 26,8 km/h (4 Bft) SW 236 0 min 0,000 mm 0,0 UV-I 129 W/m 2,1 C -7,0 C 43,5 km/h (6 Bft) 98,21 %
12.01.2016 13:55 3,9 C 88 % 1000,5 hPa 0,0 l/m 25,7 km/h (4 Bft) W-SW 239 0 min 0,000 mm 0,0 UV-I 137 W/m 2,1 C -6,7 C 41,8 km/h (6 Bft) 95,87 %
12.01.2016 14:00 4,0 C 88 % 1000,7 hPa 0,0 l/m 25,9 km/h (4 Bft) SW 219 0 min 0,051 mm 0,0 UV-I 133 W/m 2,2 C -6,6 C 41,8 km/h (6 Bft) 96,43 %
12.01.2016 14:05 4,1 C 88 % 1000,6 hPa 0,0 l/m 27,4 km/h (4 Bft) S-SO 168 0 min 0,000 mm 0,0 UV-I 129 W/m 2,3 C -6,9 C 46,7 km/h (6 Bft) 99,12 %
12.01.2016 14:10 4,1 C 88 % 1000,8 hPa 0,0 l/m 18,9 km/h (3 Bft) SW 228 0 min 0,000 mm 0,0 UV-I 125 W/m 2,3 C -3,9 C 32,2 km/h (5 Bft) 98,00 %
12.01.2016 14:20 4,3 C 86 % 1000,7 hPa 0,0 l/m 28,2 km/h (4 Bft) W-SW 242 0 min 0,000 mm 0,0 UV-I 101 W/m 2,2 C -6,9 C 46,7 km/h (6 Bft) 99,67 %
12.01.2016 14:25 4,3 C 86 % 1000,8 hPa 0,0 l/m 22,7 km/h (4 Bft) S-SW 208 0 min 0,000 mm 0,0 UV-I 91 W/m 2,2 C -5,1 C 35,4 km/h (5 Bft) 99,19 %
12.01.2016 14:30 4,4 C 85 % 1000,8 hPa 0,0 l/m 29,6 km/h (5 Bft) W 264 0 min 0,000 mm 0,0 UV-I 71 W/m 2,1 C -7,1 C 53,1 km/h (7 Bft) 98,25 %
12.01.2016 14:35 4,4 C 87 % 1000,9 hPa 0,0 l/m 23,4 km/h (4 Bft) S-SW 213 0 min 0,000 mm 0,0 UV-I 44 W/m 2,4 C -5,2 C 41,8 km/h (6 Bft) 99,19 %
12.01.2016 14:40 4,4 C 87 % 1000,9 hPa 0,0 l/m 22,3 km/h (4 Bft) W-SW 238 0 min 0,000 mm 0,0 UV-I 55 W/m 2,4 C -4,8 C 35,4 km/h (5 Bft) 100,00 %
12.01.2016 14:45 4,3 C 87 % 1001,0 hPa 0,0 l/m 22,2 km/h (4 Bft) W-SW 248 0 min 0,000 mm 0,0 UV-I 65 W/m 2,3 C -4,9 C 37,0 km/h (5 Bft) 100,00 %
12.01.2016 14:50 4,3 C 87 % 1001,2 hPa 0,0 l/m 21,3 km/h (4 Bft) W-SW 252 0 min 0,000 mm 0,0 UV-I 67 W/m 2,3 C -4,6 C 33,8 km/h (5 Bft) 100,00 %
12.01.2016 14:55 4,4 C 86 % 1001,3 hPa 0,0 l/m 18,8 km/h (3 Bft) SW 227 0 min 0,000 mm 0,0 UV-I 58 W/m 2,3 C -3,4 C 30,6 km/h (5 Bft) 98,33 %
12.01.2016 15:00 4,4 C 85 % 1001,4 hPa 0,0 l/m 21,5 km/h (4 Bft) SW 231 0 min 0,051 mm 0,0 UV-I 50 W/m 2,1 C -4,5 C 33,8 km/h (5 Bft) 97,32 %
12.01.2016 15:05 4,4 C 85 % 1001,4 hPa 0,0 l/m 22,0 km/h (4 Bft) SW 234 0 min 0,000 mm 0,0 UV-I 37 W/m 2,1 C -4,7 C 37,0 km/h (5 Bft) 100,00 %
12.01.2016 15:10 4,5 C 85 % 1001,6 hPa 0,0 l/m 20,8 km/h (4 Bft) W-SW 243 0 min 0,000 mm 0,0 UV-I 30 W/m 2,2 C -4,1 C 37,0 km/h (5 Bft) 100,00 %
12.01.2016 15:15 4,4 C 85 % 1001,6 hPa 0,0 l/m 25,6 km/h (4 Bft) SW 236 0 min 0,000 mm 0,0 UV-I 28 W/m 2,1 C -5,9 C 41,8 km/h (6 Bft) 99,11 %
12.01.2016 15:20 4,4 C 86 % 1001,7 hPa 0,0 l/m 26,6 km/h (4 Bft) W-SW 245 0 min 0,000 mm 0,0 UV-I 25 W/m 2,3 C -6,3 C 46,7 km/h (6 Bft) 99,13 %
12.01.2016 15:25 4,2 C 87 % 1001,8 hPa 0,2 l/m 20,9 km/h (4 Bft) W-SW 239 0 min 0,000 mm 0,0 UV-I 21 W/m 2,2 C -4,6 C 33,8 km/h (5 Bft) 100,00 %
12.01.2016 15:30 4,1 C 88 % 1001,8 hPa 0,0 l/m 22,5 km/h (4 Bft) W-SW 248 0 min 0,000 mm 0,0 UV-I 18 W/m 2,3 C -5,3 C 38,6 km/h (5 Bft) 99,17 %
12.01.2016 15:35 4,1 C 88 % 1001,9 hPa 0,0 l/m 20,8 km/h (4 Bft) SW 217 0 min 0,000 mm 0,0 UV-I 25 W/m 2,3 C -4,7 C 30,6 km/h (5 Bft) 96,58 %
12.01.2016 15:40 4,2 C 88 % 1001,8 hPa 0,0 l/m 22,5 km/h (4 Bft) W-SW 242 0 min 0,000 mm 0,0 UV-I 47 W/m 2,4 C -5,2 C 41,8 km/h (6 Bft) 97,25 %
12.01.2016 15:45 4,2 C 87 % 1001,8 hPa 0,0 l/m 23,2 km/h (4 Bft) W-SW 240 5 min 0,000 mm 0,0 UV-I 70 W/m 2,2 C -5,4 C 33,8 km/h (5 Bft) 97,73 %
12.01.2016 15:55 4,3 C 87 % 1001,8 hPa 0,0 l/m 19,2 km/h (3 Bft) W-SW 239 10 min 0,000 mm 0,0 UV-I 55 W/m 2,3 C -3,7 C 25,7 km/h (4 Bft) 97,76 %
12.01.2016 16:00 4,3 C 87 % 1001,9 hPa 0,0 l/m 19,6 km/h (3 Bft) SW 217 5 min 0,000 mm 0,0 UV-I 41 W/m 2,3 C -3,9 C 32,2 km/h (5 Bft) 98,00 %
12.01.2016 16:05 4,3 C 87 % 1001,9 hPa 0,0 l/m 17,6 km/h (3 Bft) W-SW 237 0 min 0,051 mm 0,0 UV-I 23 W/m 2,3 C -3,0 C 32,2 km/h (5 Bft) 95,45 %
12.01.2016 16:10 4,3 C 87 % 1001,9 hPa 0,0 l/m 18,0 km/h (3 Bft) S-SW 196 0 min 0,000 mm 0,0 UV-I 21 W/m 2,3 C -3,2 C 30,6 km/h (5 Bft) 100,00 %
12.01.2016 16:15 4,4 C 87 % 1002,0 hPa 0,0 l/m 16,7 km/h (3 Bft) W 261 5 min 0,000 mm 0,0 UV-I 31 W/m 2,4 C -2,5 C 27,4 km/h (4 Bft) 98,25 %
12.01.2016 16:20 4,4 C 87 % 1002,1 hPa 0,0 l/m 17,4 km/h (3 Bft) W-SW 257 5 min 0,000 mm 0,0 UV-I 48 W/m 2,4 C -2,8 C 27,4 km/h (4 Bft) 98,17 %
12.01.2016 16:25 4,5 C 86 % 1002,3 hPa 0,0 l/m 16,6 km/h (3 Bft) S-SW 196 0 min 0,000 mm 0,0 UV-I 20 W/m 2,4 C -2,3 C 30,6 km/h (5 Bft) 98,45 %
12.01.2016 16:30 4,6 C 86 % 1002,2 hPa 0,0 l/m 15,1 km/h (3 Bft) S-SW 213 0 min 0,000 mm 0,0 UV-I 6 W/m 2,5 C -1,5 C 22,5 km/h (4 Bft) 100,00 %
12.01.2016 16:35 4,6 C 86 % 1002,1 hPa 0,0 l/m 15,7 km/h (3 Bft) S-SW 211 0 min 0,000 mm 0,0 UV-I 4 W/m 2,5 C -1,8 C 24,1 km/h (4 Bft) 100,00 %
12.01.2016 16:40 4,4 C 86 % 1002,1 hPa 0,0 l/m 14,4 km/h (3 Bft) SW 227 0 min 0,000 mm 0,0 UV-I 0 W/m 2,3 C -1,3 C 22,5 km/h (4 Bft) 100,00 %
12.01.2016 16:45 4,4 C 86 % 1002,2 hPa 0,0 l/m 19,1 km/h (3 Bft) W-SW 241 0 min 0,000 mm 0,0 UV-I 0 W/m 2,3 C -3,6 C 30,6 km/h (5 Bft) 99,19 %
12.01.2016 16:50 4,4 C 85 % 1002,1 hPa 0,0 l/m 16,3 km/h (3 Bft) SW 232 0 min 0,000 mm 0,0 UV-I 0 W/m 2,1 C -2,3 C 27,4 km/h (4 Bft) 100,00 %
12.01.2016 16:55 4,4 C 85 % 1002,2 hPa 0,0 l/m 15,7 km/h (3 Bft) S 173 0 min 0,000 mm 0,0 UV-I 0 W/m 2,1 C -2,0 C 29,0 km/h (5 Bft) 100,00 %
12.01.2016 17:00 4,3 C 85 % 1002,3 hPa 0,0 l/m 16,9 km/h (3 Bft) SW 235 0 min 0,025 mm 0,0 UV-I 0 W/m 2,0 C -2,7 C 30,6 km/h (5 Bft) 100,00 %
12.01.2016 17:05 4,3 C 86 % 1002,4 hPa 0,0 l/m 16,4 km/h (3 Bft) SW 219 0 min 0,000 mm 0,0 UV-I 0 W/m 2,2 C -2,5 C 27,4 km/h (4 Bft) 98,11 %
12.01.2016 17:10 4,3 C 86 % 1002,6 hPa 0,0 l/m 15,5 km/h (3 Bft) W-SW 240 0 min 0,000 mm 0,0 UV-I 0 W/m 2,2 C -2,0 C 25,7 km/h (4 Bft) 98,33 %
12.01.2016 17:15 4,3 C 86 % 1002,6 hPa 0,0 l/m 14,3 km/h (3 Bft) SW 225 0 min 0,000 mm 0,0 UV-I 0 W/m 2,2 C -1,4 C 24,1 km/h (4 Bft) 98,35 %
12.01.2016 17:20 4,3 C 86 % 1002,7 hPa 0,0 l/m 15,6 km/h (3 Bft) W-SW 245 0 min 0,000 mm 0,0 UV-I 0 W/m 2,2 C -2,1 C 29,0 km/h (5 Bft) 99,08 %
12.01.2016 17:25 4,2 C 86 % 1002,7 hPa 0,0 l/m 16,0 km/h (3 Bft) SW 220 0 min 0,000 mm 0,0 UV-I 0 W/m 2,1 C -2,4 C 24,1 km/h (4 Bft) 99,22 %
12.01.2016 17:30 4,2 C 86 % 1002,7 hPa 0,0 l/m 14,8 km/h (3 Bft) S 184 0 min 0,000 mm 0,0 UV-I 0 W/m 2,1 C -1,8 C 24,1 km/h (4 Bft) 100,00 %
12.01.2016 17:35 4,2 C 86 % 1002,7 hPa 0,0 l/m 14,6 km/h (3 Bft) SW 224 0 min 0,000 mm 0,0 UV-I 0 W/m 2,1 C -1,7 C 24,1 km/h (4 Bft) 97,50 %
12.01.2016 17:40 4,2 C 86 % 1002,7 hPa 0,0 l/m 14,3 km/h (3 Bft) SW 223 0 min 0,000 mm 0,0 UV-I 0 W/m 2,1 C -1,5 C 25,7 km/h (4 Bft) 97,39 %
12.01.2016 17:45 4,2 C 86 % 1002,7 hPa 0,0 l/m 15,3 km/h (3 Bft) W-SW 247 0 min 0,000 mm 0,0 UV-I 0 W/m 2,1 C -2,0 C 25,7 km/h (4 Bft) 96,83 %
12.01.2016 17:50 4,2 C 86 % 1002,7 hPa 0,0 l/m 14,6 km/h (3 Bft) W-SW 240 0 min 0,000 mm 0,0 UV-I 0 W/m 2,1 C -1,7 C 27,4 km/h (4 Bft) 98,20 %
12.01.2016 17:55 4,2 C 86 % 1002,7 hPa 0,0 l/m 14,3 km/h (3 Bft) SW 229 0 min 0,000 mm 0,0 UV-I 0 W/m 2,1 C -1,5 C 25,7 km/h (4 Bft) 96,61 %
12.01.2016 18:00 4,2 C 86 % 1002,8 hPa 0,0 l/m 15,9 km/h (3 Bft) SW 235 0 min 0,025 mm 0,0 UV-I 0 W/m 2,1 C -2,4 C 24,1 km/h (4 Bft) 97,39 %
12.01.2016 18:05 4,2 C 86 % 1002,8 hPa 0,0 l/m 16,1 km/h (3 Bft) SW 221 0 min 0,000 mm 0,0 UV-I 0 W/m 2,1 C -2,5 C 24,1 km/h (4 Bft) 97,44 %
12.01.2016 18:10 4,2 C 86 % 1002,7 hPa 0,0 l/m 17,9 km/h (3 Bft) S 182 0 min 0,000 mm 0,0 UV-I 0 W/m 2,1 C -3,3 C 29,0 km/h (5 Bft) 97,52 %
12.01.2016 18:15 4,3 C 86 % 1002,7 hPa 0,0 l/m 12,6 km/h (3 Bft) S-SW 206 0 min 0,000 mm 0,0 UV-I 0 W/m 2,2 C -0,4 C 19,3 km/h (3 Bft) 96,59 %
12.01.2016 18:20 4,3 C 86 % 1002,9 hPa 0,0 l/m 14,4 km/h (3 Bft) S-SW 211 0 min 0,000 mm 0,0 UV-I 0 W/m 2,2 C -1,5 C 24,1 km/h (4 Bft) 97,16 %
12.01.2016 18:25 4,3 C 86 % 1002,8 hPa 0,0 l/m 14,4 km/h (3 Bft) SW 215 0 min 0,000 mm 0,0 UV-I 0 W/m 2,2 C -1,5 C 25,7 km/h (4 Bft) 99,15 %
12.01.2016 18:30 4,4 C 85 % 1002,9 hPa 0,0 l/m 15,8 km/h (3 Bft) S-SW 204 0 min 0,000 mm 0,0 UV-I 0 W/m 2,1 C -2,1 C 29,0 km/h (5 Bft) 100,00 %
12.01.2016 18:35 4,5 C 85 % 1003,1 hPa 0,0 l/m 16,4 km/h (3 Bft) SW 231 0 min 0,000 mm 0,0 UV-I 0 W/m 2,2 C -2,2 C 24,1 km/h (4 Bft) 98,31 %
12.01.2016 18:40 4,6 C 85 % 1003,1 hPa 0,0 l/m 16,5 km/h (3 Bft) W-SW 243 0 min 0,000 mm 0,0 UV-I 0 W/m 2,3 C -2,2 C 29,0 km/h (5 Bft) 99,15 %
12.01.2016 18:45 4,7 C 84 % 1003,1 hPa 0,0 l/m 15,1 km/h (3 Bft) W-SW 238 0 min 0,000 mm 0,0 UV-I 0 W/m 2,2 C -1,3 C 27,4 km/h (4 Bft) 99,15 %
12.01.2016 18:50 4,7 C 84 % 1003,1 hPa 0,0 l/m 13,5 km/h (3 Bft) S 190 0 min 0,000 mm 0,0 UV-I 0 W/m 2,2 C -0,5 C 24,1 km/h (4 Bft) 100,00 %
12.01.2016 18:55 4,6 C 84 % 1003,0 hPa 0,0 l/m 14,6 km/h (3 Bft) SW 232 0 min 0,000 mm 0,0 UV-I 0 W/m 2,1 C -1,2 C 25,7 km/h (4 Bft) 100,00 %
12.01.2016 19:00 4,5 C 85 % 1003,2 hPa 0,0 l/m 16,7 km/h (3 Bft) W-SW 237 0 min 0,026 mm 0,0 UV-I 0 W/m 2,2 C -2,4 C 30,6 km/h (5 Bft) 99,17 %
12.01.2016 19:05 4,5 C 85 % 1003,1 hPa 0,0 l/m 18,2 km/h (3 Bft) W-SW 248 0 min 0,000 mm 0,0 UV-I 0 W/m 2,2 C -3,1 C 27,4 km/h (4 Bft) 100,00 %
12.01.2016 19:10 4,5 C 85 % 1003,2 hPa 0,0 l/m 16,6 km/h (3 Bft) SW 222 0 min 0,000 mm 0,0 UV-I 0 W/m 2,2 C -2,3 C 25,7 km/h (4 Bft) 98,29 %
12.01.2016 19:15 4,6 C 85 % 1003,3 hPa 0,0 l/m 22,4 km/h (4 Bft) SW 223 0 min 0,000 mm 0,0 UV-I 0 W/m 2,3 C -4,6 C 33,8 km/h (5 Bft) 100,00 %
12.01.2016 19:20 4,8 C 85 % 1003,2 hPa 0,0 l/m 18,6 km/h (3 Bft) W-SW 241 0 min 0,000 mm 0,0 UV-I 0 W/m 2,5 C -2,9 C 32,2 km/h (5 Bft) 100,00 %
12.01.2016 19:25 4,8 C 84 % 1003,2 hPa 0,0 l/m 19,4 km/h (3 Bft) S-SW 192 0 min 0,000 mm 0,0 UV-I 0 W/m 2,3 C -3,2 C 30,6 km/h (5 Bft) 99,19 %
12.01.2016 19:30 4,8 C 84 % 1003,3 hPa 0,0 l/m 17,3 km/h (3 Bft) W-SW 252 0 min 0,000 mm 0,0 UV-I 0 W/m 2,3 C -2,3 C 30,6 km/h (5 Bft) 99,13 %
12.01.2016 19:35 4,8 C 84 % 1003,3 hPa 0,0 l/m 16,5 km/h (3 Bft) SW 227 0 min 0,000 mm 0,0 UV-I 0 W/m 2,3 C -1,9 C 27,4 km/h (4 Bft) 100,00 %
12.01.2016 19:40 4,7 C 84 % 1003,4 hPa 0,0 l/m 17,9 km/h (3 Bft) W-SW 255 0 min 0,000 mm 0,0 UV-I 0 W/m 2,2 C -2,7 C 29,0 km/h (5 Bft) 94,92 %
12.01.2016 19:45 4,7 C 84 % 1003,6 hPa 0,0 l/m 20,4 km/h (4 Bft) SW 232 0 min 0,000 mm 0,0 UV-I 0 W/m 2,2 C -3,7 C 33,8 km/h (5 Bft) 97,32 %
12.01.2016 19:50 4,8 C 84 % 1003,5 hPa 0,0 l/m 17,2 km/h (3 Bft) W-SW 242 0 min 0,000 mm 0,0 UV-I 0 W/m 2,3 C -2,2 C 30,6 km/h (5 Bft) 96,58 %
12.01.2016 19:55 4,7 C 83 % 1003,5 hPa 0,0 l/m 18,3 km/h (3 Bft) W-SW 248 0 min 0,000 mm 0,0 UV-I 0 W/m 2,1 C -2,9 C 29,0 km/h (5 Bft) 95,65 %
12.01.2016 20:00 4,7 C 84 % 1003,5 hPa 0,0 l/m 16,5 km/h (3 Bft) S-SW 192 0 min 0,025 mm 0,0 UV-I 0 W/m 2,2 C -2,0 C 24,1 km/h (4 Bft) 97,32 %
12.01.2016 20:05 4,7 C 84 % 1003,5 hPa 0,0 l/m 15,4 km/h (3 Bft) S-SW 209 0 min 0,000 mm 0,0 UV-I 0 W/m 2,2 C -1,5 C 24,1 km/h (4 Bft) 97,67 %
12.01.2016 20:10 4,7 C 84 % 1003,5 hPa 0,0 l/m 16,2 km/h (3 Bft) SW 216 0 min 0,000 mm 0,0 UV-I 0 W/m 2,2 C -1,9 C 27,4 km/h (4 Bft) 97,46 %
12.01.2016 20:15 4,7 C 84 % 1003,6 hPa 0,0 l/m 17,4 km/h (3 Bft) SW 234 0 min 0,000 mm 0,0 UV-I 0 W/m 2,2 C -2,5 C 29,0 km/h (5 Bft) 97,30 %
12.01.2016 20:20 4,8 C 84 % 1003,6 hPa 0,0 l/m 17,5 km/h (3 Bft) S-SW 206 0 min 0,000 mm 0,0 UV-I 0 W/m 2,3 C -2,4 C 29,0 km/h (5 Bft) 97,46 %
12.01.2016 20:25 4,8 C 83 % 1003,6 hPa 0,0 l/m 19,7 km/h (3 Bft) SW 217 0 min 0,000 mm 0,0 UV-I 0 W/m 2,2 C -3,3 C 32,2 km/h (5 Bft) 99,11 %
12.01.2016 20:30 4,9 C 82 % 1003,6 hPa 0,0 l/m 19,4 km/h (3 Bft) SW 223 0 min 0,000 mm 0,0 UV-I 0 W/m 2,1 C -3,1 C 32,2 km/h (5 Bft) 100,00 %
12.01.2016 20:35 5,1 C 82 % 1003,6 hPa 0,0 l/m 20,1 km/h (4 Bft) W-SW 240 0 min 0,000 mm 0,0 UV-I 0 W/m 2,3 C -3,1 C 30,6 km/h (5 Bft) 100,00 %
12.01.2016 20:40 5,2 C 81 % 1003,6 hPa 0,0 l/m 15,5 km/h (3 Bft) SW 215 0 min 0,000 mm 0,0 UV-I 0 W/m 2,2 C -0,9 C 25,7 km/h (4 Bft) 99,11 %
12.01.2016 20:45 5,1 C 81 % 1003,6 hPa 0,0 l/m 15,2 km/h (3 Bft) SW 225 0 min 0,000 mm 0,0 UV-I 0 W/m 2,1 C -0,9 C 25,7 km/h (4 Bft) 98,37 %
12.01.2016 20:50 5,0 C 81 % 1003,7 hPa 0,0 l/m 16,2 km/h (3 Bft) SW 217 0 min 0,000 mm 0,0 UV-I 0 W/m 2,0 C -1,5 C 25,7 km/h (4 Bft) 99,08 %
12.01.2016 20:55 5,1 C 81 % 1003,8 hPa 0,0 l/m 18,0 km/h (3 Bft) SW 214 0 min 0,000 mm 0,0 UV-I 0 W/m 2,1 C -2,2 C 29,0 km/h (5 Bft) 99,19 %
12.01.2016 21:00 5,0 C 81 % 1003,9 hPa 0,0 l/m 18,8 km/h (3 Bft) S-SW 195 0 min 0,026 mm 0,0 UV-I 0 W/m 2,0 C -2,7 C 29,0 km/h (5 Bft) 98,35 %
12.01.2016 21:05 4,9 C 81 % 1003,8 hPa 0,0 l/m 17,8 km/h (3 Bft) S-SW 213 0 min 0,000 mm 0,0 UV-I 0 W/m 1,9 C -2,4 C 25,7 km/h (4 Bft) 99,11 %
12.01.2016 21:10 5,0 C 81 % 1003,9 hPa 0,0 l/m 18,0 km/h (3 Bft) SW 235 0 min 0,000 mm 0,0 UV-I 0 W/m 2,0 C -2,3 C 27,4 km/h (4 Bft) 99,19 %
12.01.2016 21:15 4,9 C 81 % 1003,9 hPa 0,0 l/m 15,3 km/h (3 Bft) W-SW 239 0 min 0,000 mm 0,0 UV-I 0 W/m 1,9 C -1,2 C 22,5 km/h (4 Bft) 99,08 %
12.01.2016 21:20 4,8 C 81 % 1003,9 hPa 0,0 l/m 15,7 km/h (3 Bft) W 260 0 min 0,000 mm 0,0 UV-I 0 W/m 1,8 C -1,5 C 22,5 km/h (4 Bft) 100,00 %
12.01.2016 21:25 4,7 C 80 % 1003,8 hPa 0,0 l/m 15,9 km/h (3 Bft) W-SW 258 0 min 0,000 mm 0,0 UV-I 0 W/m 1,6 C -1,7 C 30,6 km/h (5 Bft) 100,00 %
12.01.2016 21:30 4,7 C 80 % 1003,9 hPa 0,0 l/m 16,5 km/h (3 Bft) W-SW 242 0 min 0,000 mm 0,0 UV-I 0 W/m 1,6 C -2,0 C 25,7 km/h (4 Bft) 100,00 %
12.01.2016 21:35 4,7 C 80 % 1003,9 hPa 0,0 l/m 16,0 km/h (3 Bft) W-SW 237 0 min 0,000 mm 0,0 UV-I 0 W/m 1,6 C -1,8 C 25,7 km/h (4 Bft) 98,15 %
12.01.2016 21:40 4,7 C 79 % 1003,9 hPa 0,0 l/m 17,9 km/h (3 Bft) SW 223 0 min 0,000 mm 0,0 UV-I 0 W/m 1,4 C -2,7 C 32,2 km/h (5 Bft) 98,35 %
12.01.2016 21:45 4,7 C 79 % 1003,9 hPa 0,0 l/m 18,6 km/h (3 Bft) SW 227 0 min 0,000 mm 0,0 UV-I 0 W/m 1,4 C -3,0 C 29,0 km/h (5 Bft) 100,00 %
12.01.2016 21:50 4,6 C 79 % 1004,0 hPa 0,0 l/m 15,8 km/h (3 Bft) SW 236 0 min 0,000 mm 0,0 UV-I 0 W/m 1,3 C -1,8 C 29,0 km/h (5 Bft) 96,67 %
12.01.2016 21:55 4,4 C 80 % 1004,1 hPa 0,0 l/m 15,0 km/h (3 Bft) S-SW 209 0 min 0,000 mm 0,0 UV-I 0 W/m 1,3 C -1,7 C 22,5 km/h (4 Bft) 97,32 %
12.01.2016 22:00 4,2 C 81 % 1004,1 hPa 0,0 l/m 17,2 km/h (3 Bft) SW 231 0 min 0,025 mm 0,0 UV-I 0 W/m 1,2 C -3,0 C 27,4 km/h (4 Bft) 96,06 %
12.01.2016 22:05 4,1 C 81 % 1004,2 hPa 0,0 l/m 17,6 km/h (3 Bft) SW 234 0 min 0,000 mm 0,0 UV-I 0 W/m 1,1 C -3,3 C 29,0 km/h (5 Bft) 95,73 %
12.01.2016 22:10 4,1 C 81 % 1004,1 hPa 0,0 l/m 15,9 km/h (3 Bft) SW 228 0 min 0,000 mm 0,0 UV-I 0 W/m 1,1 C -2,5 C 25,7 km/h (4 Bft) 96,12 %
12.01.2016 22:15 4,2 C 81 % 1004,1 hPa 0,0 l/m 17,4 km/h (3 Bft) SW 217 0 min 0,000 mm 0,0 UV-I 0 W/m 1,2 C -3,1 C 27,4 km/h (4 Bft) 97,56 %
12.01.2016 22:20 4,3 C 80 % 1004,2 hPa 0,0 l/m 17,4 km/h (3 Bft) W-SW 237 0 min 0,000 mm 0,0 UV-I 0 W/m 1,2 C -3,0 C 25,7 km/h (4 Bft) 97,58 %
12.01.2016 22:25 4,4 C 79 % 1004,3 hPa 0,0 l/m 18,0 km/h (3 Bft) W 270 0 min 0,000 mm 0,0 UV-I 0 W/m 1,1 C -3,1 C 27,4 km/h (4 Bft) 99,09 %
12.01.2016 22:30 4,5 C 79 % 1004,3 hPa 0,0 l/m 16,5 km/h (3 Bft) W-SW 249 0 min 0,000 mm 0,0 UV-I 0 W/m 1,2 C -2,3 C 24,1 km/h (4 Bft) 99,12 %
12.01.2016 22:35 4,5 C 79 % 1004,4 hPa 0,0 l/m 14,9 km/h (3 Bft) W-SW 248 0 min 0,000 mm 0,0 UV-I 0 W/m 1,2 C -1,5 C 24,1 km/h (4 Bft) 97,60 %
12.01.2016 22:40 4,4 C 79 % 1004,4 hPa 0,0 l/m 15,0 km/h (3 Bft) SW 231 0 min 0,000 mm 0,0 UV-I 0 W/m 1,1 C -1,7 C 25,7 km/h (4 Bft) 99,11 %
12.01.2016 22:45 4,5 C 78 % 1004,4 hPa 0,0 l/m 18,7 km/h (3 Bft) W-SW 245 0 min 0,000 mm 0,0 UV-I 0 W/m 1,0 C -3,3 C 33,8 km/h (5 Bft) 98,25 %
12.01.2016 22:50 4,6 C 78 % 1004,4 hPa 0,0 l/m 18,0 km/h (3 Bft) W-SW 258 0 min 0,000 mm 0,0 UV-I 0 W/m 1,1 C -2,8 C 27,4 km/h (4 Bft) 99,15 %
12.01.2016 22:55 4,6 C 78 % 1004,4 hPa 0,0 l/m 18,6 km/h (3 Bft) W-SW 257 0 min 0,000 mm 0,0 UV-I 0 W/m 1,1 C -3,1 C 30,6 km/h (5 Bft) 100,00 %
12.01.2016 23:00 4,6 C 78 % 1004,5 hPa 0,0 l/m 19,5 km/h (3 Bft) SW 219 0 min 0,025 mm 0,0 UV-I 0 W/m 1,1 C -3,5 C 32,2 km/h (5 Bft) 100,00 %
12.01.2016 23:05 4,5 C 78 % 1004,6 hPa 0,0 l/m 16,0 km/h (3 Bft) W-SW 237 0 min 0,000 mm 0,0 UV-I 0 W/m 1,0 C -2,0 C 25,7 km/h (4 Bft) 99,11 %
12.01.2016 23:10 4,3 C 79 % 1004,6 hPa 0,0 l/m 15,6 km/h (3 Bft) S-SW 210 0 min 0,000 mm 0,0 UV-I 0 W/m 1,0 C -2,1 C 30,6 km/h (5 Bft) 100,00 %
12.01.2016 23:15 4,3 C 79 % 1004,6 hPa 0,0 l/m 19,8 km/h (3 Bft) W-SW 242 0 min 0,000 mm 0,0 UV-I 0 W/m 1,0 C -4,0 C 29,0 km/h (5 Bft) 99,13 %
12.01.2016 23:20 4,3 C 78 % 1004,7 hPa 0,0 l/m 20,3 km/h (4 Bft) W-SW 244 0 min 0,000 mm 0,0 UV-I 0 W/m 0,8 C -4,2 C 30,6 km/h (5 Bft) 100,00 %
12.01.2016 23:25 4,4 C 78 % 1004,8 hPa 0,0 l/m 19,0 km/h (3 Bft) W 259 0 min 0,000 mm 0,0 UV-I 0 W/m 0,9 C -3,5 C 29,0 km/h (5 Bft) 100,00 %
12.01.2016 23:30 4,6 C 76 % 1004,8 hPa 0,0 l/m 24,2 km/h (4 Bft) W-SW 252 0 min 0,000 mm 0,0 UV-I 0 W/m 0,7 C -5,2 C 38,6 km/h (5 Bft) 100,00 %
12.01.2016 23:35 4,7 C 76 % 1004,9 hPa 0,0 l/m 19,1 km/h (3 Bft) W-SW 254 0 min 0,000 mm 0,0 UV-I 0 W/m 0,8 C -3,2 C 30,6 km/h (5 Bft) 99,21 %
12.01.2016 23:40 4,7 C 76 % 1005,0 hPa 0,0 l/m 16,7 km/h (3 Bft) W-SW 255 0 min 0,000 mm 0,0 UV-I 0 W/m 0,8 C -2,1 C 30,6 km/h (5 Bft) 100,00 %
12.01.2016 23:45 4,8 C 76 % 1005,0 hPa 0,0 l/m 18,0 km/h (3 Bft) W-SW 244 0 min 0,000 mm 0,0 UV-I 0 W/m 0,9 C -2,6 C 41,8 km/h (6 Bft) 100,00 %
12.01.2016 23:50 4,8 C 76 % 1005,0 hPa 0,0 l/m 18,1 km/h (3 Bft) SW 221 0 min 0,000 mm 0,0 UV-I 0 W/m 0,9 C -2,6 C 32,2 km/h (5 Bft) 100,00 %
12.01.2016 23:55 4,9 C 75 % 1004,9 hPa 0,0 l/m 20,9 km/h (4 Bft) W-SW 248 0 min 0,000 mm 0,0 UV-I 0 W/m 0,8 C -3,7 C 37,0 km/h (5 Bft) 99,08 %
_ Min-Zeit 13:30 08:55 00:05 - 06:25 - - - - - - 23:30 14:30 02:00 05:20
Minimum _ 3,8 C 74 % 994,6 hPa - 9,6 km/h (2 Bft) - - - - - - 0,7 C -7,1 C 16,1 km/h (3 Bft) 94,74 %
_ Max-Zeit 00:00 00:35 23:40 00:00 14:30 - - 15:55 11:05 00:00 10:35 00:05 01:55 10:40 00:05
Maximum _ 6,5 C 89 % 1005,0 hPa 0,2 l/m 29,6 km/h
W (5 Bft)
- - 10 min 0,102 mm 0,0 UV-I 190 W/m 4,0 C 2,2 C 53,1 km/h
SW (7 Bft)
100,00 %
Durchschnitt _ 4,8 C 83 % 999,3 hPa #0,8 l/m 17,9 km/h (3 Bft) W-SW - #50 min. #0,914 mm 0,0 UV-I 75 W/m 2,1 C -2,3 C 29,6 km/h (5 Bft) 98,62 %